DateTimeUTC,F1_A11,F1_S11,BsB_S11,BsG_S11,BsR_S11,BbsB_S11,BbsG_S11,BbsR_S11,BaB_A11,BaG_A11,BaR_A11,Tu_S11,T_S11,Uu_S11,U_S11,P_S11,T1_A11
2021-08-15T22:00:00Z,00000200,20000000,,,,,,,0000.41,-000.23,-000.19,19.3,25.8,12.9,08.7,0674.3,30.9
2021-08-15T22:01:00Z,00000200,20000000,,,,,,,-000.29,-000.25,0000.33,19.3,25.8,12.9,08.7,0674.3,30.9
2021-08-15T22:02:00Z,00000200,20000000,,,,,,,-000.34,0000.33,-000.16,19.3,25.8,12.9,08.7,0674.3,30.9
2021-08-15T22:03:00Z,00000200,60000000,,,,,,,0000.22,-000.21,0000.23,19.3,25.8,12.9,08.7,0674.3,30.9
2021-08-15T22:04:00Z,00000200,40000000,0000.72,0000.22,0000.33,0000.61,0000.21,0000.19,-000.12,0000.03,-000.20,19.4,25.6,12.8,08.8,0675.2,30.9
2021-08-15T22:05:00Z,00000200,00000000,0001.26,0000.60,0000.40,0000.65,0000.43,0000.14,0000.10,0000.10,0000.35,19.5,25.6,12.8,08.8,0675.3,30.9
2021-08-15T22:06:00Z,00000200,00000000,0000.42,0000.32,0000.04,0000.76,0000.16,-000.10,0000.03,-000.34,-000.04,19.5,25.6,12.8,08.8,0675.2,30.9
2021-08-15T22:07:00Z,00000200,00000000,0000.67,0000.24,0000.32,0000.14,0000.02,-000.13,-000.17,0000.37,-000.12,19.5,25.6,12.9,08.9,0675.3,30.9
2021-08-15T22:08:00Z,00000200,00000000,0000.53,0000.34,0000.43,-000.04,0000.23,0000.27,0000.06,0000.06,0000.15,19.5,25.6,12.9,08.9,0675.2,30.9
2021-08-15T22:09:00Z,00000200,00000000,0000.15,0000.35,0000.38,0000.79,0000.22,-000.07,0000.30,0000.25,-000.30,19.5,25.6,12.9,08.9,0675.2,30.9
2021-08-15T22:10:00Z,00000200,00000000,0001.54,0000.24,0000.32,0000.12,0000.01,-000.04,-000.25,-000.46,-000.03,19.4,25.5,13.0,09.0,0675.3,30.9
2021-08-15T22:11:00Z,00000200,00000000,0002.22,0001.40,0000.99,0000.39,0000.28,0000.00,0000.27,-000.17,0000.08,19.4,25.5,12.9,08.9,0675.2,30.9
2021-08-15T22:12:00Z,00000200,00000000,0002.70,0002.15,0001.43,0000.63,0000.26,0000.39,0000.16,0000.29,-000.24,19.4,25.5,12.5,08.6,0675.3,30.9
2021-08-15T22:13:00Z,00000200,00000000,0002.56,0002.17,0001.34,0000.43,0000.14,0000.28,0000.13,0000.66,0001.03,19.4,25.5,12.4,08.6,0675.3,30.9
2021-08-15T22:14:00Z,00000200,00000000,0002.36,0002.21,0001.52,0000.20,0000.26,0000.51,0000.16,0000.30,-000.30,19.4,25.5,12.3,08.5,0675.3,30.9
2021-08-15T22:15:00Z,00000200,00000000,0003.21,0002.27,0001.58,0000.52,0000.46,0000.30,0000.79,0000.57,0000.69,19.4,25.5,12.3,08.5,0675.3,30.9
2021-08-15T22:16:00Z,00000200,00000000,0002.74,0002.10,0001.29,0000.15,0000.52,0000.00,0000.61,0000.20,0000.33,19.4,25.5,12.3,08.5,0675.3,30.9
2021-08-15T22:17:00Z,00000200,00000000,0003.03,0002.31,0001.72,0000.75,0000.24,0000.43,0000.45,0000.62,0000.31,19.4,25.5,12.1,08.4,0675.2,30.9
2021-08-15T22:18:00Z,00000200,00000000,0002.15,0002.04,0000.98,0000.89,0000.51,0000.40,0000.41,0000.29,0000.27,19.4,25.5,12.2,08.4,0675.3,30.9
2021-08-15T22:19:00Z,00000200,00000000,0002.15,0002.40,0001.43,0000.32,0000.42,0000.05,0000.29,0000.51,0000.37,19.4,25.5,12.2,08.4,0675.3,30.9
2021-08-15T22:20:00Z,00000200,00000000,0002.29,0002.62,0001.45,0000.70,0000.30,0000.11,0000.72,0000.36,0000.17,19.4,25.5,12.1,08.4,0675.3,30.9
2021-08-15T22:21:00Z,00000200,00000000,0002.84,0002.04,0001.08,0000.85,0000.43,0000.27,0000.71,0000.19,0000.21,19.4,25.5,12.0,08.3,0675.3,30.9
2021-08-15T22:22:00Z,00000200,00000000,0002.05,0001.98,0000.99,0001.08,0000.29,0000.23,-000.17,0000.22,0000.35,19.4,25.5,12.0,08.3,0675.3,30.9
2021-08-15T22:23:00Z,00000200,00000000,0002.68,0002.30,0001.21,-000.03,0000.51,0000.17,0000.68,0000.88,0000.52,19.4,25.5,12.0,08.3,0675.4,30.9
2021-08-15T22:24:00Z,00000200,00000000,0002.69,0001.78,0001.24,0001.14,0000.44,0000.32,0000.41,0000.07,0000.28,19.4,25.4,12.0,08.3,0675.4,30.9
2021-08-15T22:25:00Z,00000200,00000000,0002.93,0001.81,0001.18,0000.92,0000.41,0000.13,0000.46,0000.53,0000.64,19.4,25.4,12.0,08.3,0675.4,30.9
2021-08-15T22:26:00Z,00000200,00000000,0002.41,0001.67,0001.57,0000.56,0000.17,0000.03,0000.33,0000.67,0000.05,19.4,25.4,12.1,08.4,0675.4,30.9
2021-08-15T22:27:00Z,00000200,00000000,0002.96,0002.00,0001.35,0000.65,0000.32,0000.04,0000.55,0000.01,0000.35,19.4,25.4,11.9,08.3,0675.4,30.9
2021-08-15T22:28:00Z,00000200,00000000,0002.83,0001.80,0001.55,-000.18,-000.17,0000.50,0000.66,0000.70,0000.40,19.3,25.4,12.0,08.3,0675.3,30.9
2021-08-15T22:29:00Z,00000200,00000000,0002.18,0001.69,0001.26,0000.46,0000.49,0000.03,0000.43,0000.48,0000.37,19.3,25.4,11.9,08.2,0675.4,30.9
2021-08-15T22:30:00Z,00000200,00000000,0002.60,0002.25,0001.32,0000.53,0000.25,-000.17,0000.58,0000.58,0000.46,19.3,25.4,11.9,08.2,0675.4,30.9
2021-08-15T22:31:00Z,00000200,00000000,0002.51,0002.19,0001.38,0000.22,0000.50,0000.39,0000.36,0000.42,-000.12,19.3,25.4,11.9,08.2,0675.4,30.9
2021-08-15T22:32:00Z,00000200,00000000,0002.34,0001.66,0001.56,0000.75,0000.24,0000.49,0000.54,0000.39,0000.78,19.3,25.4,11.8,08.2,0675.4,30.9
2021-08-15T22:33:00Z,00000200,00000000,0002.22,0002.32,0001.40,0000.08,0000.11,0000.36,0000.31,0000.61,0000.25,19.3,25.4,11.8,08.2,0675.5,30.9
2021-08-15T22:34:00Z,00000200,00000000,0002.11,0002.05,0000.98,0000.91,0000.62,0000.04,0000.68,0000.59,0000.51,19.3,25.4,12.0,08.3,0675.5,30.9
2021-08-15T22:35:00Z,00000200,00000000,0002.53,0001.86,0001.20,0000.39,0000.40,0000.16,0000.49,-000.00,0000.29,19.3,25.4,12.0,08.3,0675.5,30.9
2021-08-15T22:36:00Z,00000200,00000000,0002.56,0002.29,0001.63,0000.57,0000.28,0000.17,0000.51,0000.69,0000.66,19.3,25.4,12.0,08.3,0675.5,30.9
2021-08-15T22:37:00Z,00000200,00000000,0002.41,0002.17,0001.18,0000.18,0000.17,0000.22,0000.60,0000.46,0000.20,19.3,25.3,12.0,08.3,0675.5,30.9
2021-08-15T22:38:00Z,00000200,00000000,0002.47,0001.95,0000.91,0000.76,0000.16,0000.10,0000.48,0000.76,0000.43,19.3,25.3,11.9,08.2,0675.5,30.9
2021-08-15T22:39:00Z,00000200,00000000,0002.93,0002.02,0001.32,0000.29,0000.41,0000.20,0000.37,-000.08,0000.04,19.3,25.3,12.0,08.3,0675.5,30.9
2021-08-15T22:40:00Z,00000200,00000000,0002.93,0001.89,0001.24,0000.68,0000.43,0000.38,0000.55,0000.51,0000.38,19.3,25.3,11.9,08.2,0675.5,30.9
2021-08-15T22:41:00Z,00000200,00000000,0003.27,0002.02,0001.39,0000.81,0000.44,0000.22,0000.55,0000.85,0000.56,19.3,25.3,11.8,08.2,0675.5,30.9
2021-08-15T22:42:00Z,00000200,00000000,0003.17,0001.94,0001.24,0000.81,0000.42,0000.33,0000.63,0000.23,0000.40,19.3,25.3,11.9,08.2,0675.5,30.9
2021-08-15T22:43:00Z,00000200,00000000,0002.91,0001.70,0001.58,0000.29,0000.27,0000.37,0000.54,0000.43,0000.70,19.2,25.3,11.9,08.2,0675.5,30.9
2021-08-15T22:44:00Z,00000200,00000000,0002.17,0002.22,0001.07,0000.61,0000.49,0000.26,0000.43,0000.53,0000.16,19.2,25.3,11.8,08.2,0675.5,30.9
2021-08-15T22:45:00Z,00000200,00000000,0003.15,0002.14,0001.30,0000.30,0000.33,0000.38,0000.22,0000.44,0000.41,19.2,25.3,11.9,08.2,0675.5,30.9
2021-08-15T22:46:00Z,00000200,00000000,0002.59,0002.15,0001.35,0000.65,0000.65,0000.18,0001.09,0000.63,0000.29,19.2,25.3,11.9,08.3,0675.5,30.9
2021-08-15T22:47:00Z,00000200,00000000,0002.22,0002.19,0001.47,0000.87,0000.15,0000.13,0000.29,0000.54,0000.66,19.2,25.3,12.0,08.3,0675.5,30.9
2021-08-15T22:48:00Z,00000200,00000000,0002.70,0001.96,0001.14,0000.62,0000.41,0000.09,0000.61,0000.57,0000.31,19.2,25.3,12.0,08.3,0675.5,30.9
2021-08-15T22:49:00Z,00000200,00000000,0002.50,0002.37,0001.45,0000.09,0000.34,-000.09,0000.36,0000.58,0000.22,19.2,25.3,11.9,08.2,0675.6,30.9
2021-08-15T22:50:00Z,00000200,00000000,0002.59,0002.38,0001.63,0000.18,0000.19,0000.49,0000.69,0000.61,0000.66,19.2,25.3,12.0,08.2,0675.6,30.9
2021-08-15T22:51:00Z,00000200,00000000,0002.78,0001.88,0001.39,0000.73,0000.42,0000.25,0000.38,0000.40,0000.09,19.2,25.3,11.8,08.2,0675.5,30.9
2021-08-15T22:52:00Z,00000200,00000000,0002.29,0001.93,0001.43,0000.03,0000.51,0000.37,0000.78,0000.52,0000.55,19.2,25.2,11.9,08.2,0675.6,30.9
2021-08-15T22:53:00Z,00000200,00000000,0003.22,0001.87,0001.62,0000.54,0000.43,0000.30,0000.39,0000.44,0000.42,19.2,25.2,11.9,08.2,0675.6,30.9
2021-08-15T22:54:00Z,00000200,00000000,0002.17,0002.03,0001.28,0000.43,0000.18,0000.20,0000.13,0000.41,0000.41,19.2,25.2,11.9,08.2,0675.5,30.9
2021-08-15T22:55:00Z,00000200,00000000,0003.01,0002.11,0001.19,0000.39,0000.52,0000.47,0001.04,0000.65,0000.27,19.2,25.2,11.8,08.1,0675.5,30.9
2021-08-15T22:56:00Z,00000200,00000000,0002.75,0001.83,0001.32,0000.78,-000.09,0000.22,0000.45,0000.30,0000.48,19.2,25.2,11.8,08.2,0675.5,30.9
2021-08-15T22:57:00Z,00000200,40000000,,,,,,,0000.03,0000.29,-000.02,19.2,25.3,11.7,08.1,0675.6,30.9
2021-08-15T22:58:00Z,00000200,60000000,,,,,,,-000.24,-000.59,0000.01,18.9,25.4,11.9,08.0,0674.5,30.9
2021-08-15T22:59:00Z,00000200,20000000,,,,,,,-000.10,0000.09,-000.34,18.9,25.5,11.8,07.9,0674.5,30.9
